TimeCDT,TemperatureF,Dew PointF,Humidity,Sea Level PressureIn,VisibilityMPH,Wind Direction,Wind SpeedMPH,Gust SpeedMPH,PrecipitationIn,Events,Conditions,WindDirDegrees,DateUTC
12:54 AM,64.0,62.1,93,29.83,10.0,Calm,Calm,-,N/A,,Clear,0,2013-09-26 05:54:00
1:54 AM,64.0,62.1,93,29.83,10.0,Calm,Calm,-,N/A,,Clear,0,2013-09-26 06:54:00
2:54 AM,64.0,62.1,93,29.83,10.0,Calm,Calm,-,N/A,,Clear,0,2013-09-26 07:54:00
3:54 AM,63.0,61.0,93,29.84,8.0,Calm,Calm,-,N/A,,Clear,0,2013-09-26 08:54:00
4:54 AM,62.1,61.0,96,29.86,8.0,Calm,Calm,-,N/A,,Clear,0,2013-09-26 09:54:00
5:54 AM,62.1,61.0,96,29.87,9.0,Calm,Calm,-,N/A,,Clear,0,2013-09-26 10:54:00
6:54 AM,62.1,60.1,93,29.88,7.0,Calm,Calm,-,N/A,,Clear,0,2013-09-26 11:54:00
7:54 AM,64.9,63.0,93,29.91,8.0,Calm,Calm,-,N/A,,Clear,0,2013-09-26 12:54:00
8:54 AM,73.0,66.0,79,29.92,10.0,Calm,Calm,-,N/A,,Clear,0,2013-09-26 13:54:00
9:54 AM,78.1,66.0,66,29.94,10.0,Calm,Calm,-,N/A,,Clear,0,2013-09-26 14:54:00
10:54 AM,82.9,61.0,47,29.94,10.0,North,5.8,-,N/A,,Partly Cloudy,10,2013-09-26 15:54:00
11:54 AM,84.0,59.0,43,29.94,10.0,NNE,6.9,-,N/A,,Scattered Clouds,30,2013-09-26 16:54:00
12:54 PM,84.9,61.0,44,29.93,10.0,NE,9.2,-,N/A,,Mostly Cloudy,50,2013-09-26 17:54:00
1:54 PM,84.9,60.1,43,29.91,10.0,NNE,3.5,-,N/A,,Scattered Clouds,30,2013-09-26 18:54:00
2:54 PM,86.0,60.1,41,29.90,10.0,Variable,4.6,-,N/A,,Scattered Clouds,0,2013-09-26 19:54:00
3:54 PM,84.9,60.1,43,29.89,10.0,Variable,4.6,-,N/A,,Scattered Clouds,0,2013-09-26 20:54:00
4:54 PM,86.0,60.1,41,29.89,10.0,North,6.9,-,N/A,,Scattered Clouds,350,2013-09-26 21:54:00
5:54 PM,84.9,61.0,44,29.89,10.0,North,4.6,-,N/A,,Partly Cloudy,350,2013-09-26 22:54:00
6:54 PM,77.0,64.0,64,29.90,10.0,Calm,Calm,-,N/A,,Partly Cloudy,0,2013-09-26 23:54:00
7:54 PM,72.0,64.0,76,29.91,10.0,Calm,Calm,-,N/A,,Partly Cloudy,0,2013-09-27 00:54:00
8:54 PM,73.0,64.9,76,29.94,10.0,ENE,6.9,-,N/A,,Partly Cloudy,70,2013-09-27 01:54:00
9:54 PM,73.0,66.9,81,29.95,10.0,East,8.1,-,N/A,,Clear,90,2013-09-27 02:54:00
10:54 PM,72.0,68.0,87,29.96,9.0,East,6.9,-,N/A,,Clear,100,2013-09-27 03:54:00
11:54 PM,71.1,68.0,90,29.96,8.0,ESE,4.6,-,N/A,,Clear,120,2013-09-27 04:54:00